Location: Lussas
(44.6119°N, 4.4726°E)
Time: 20:53:27
(UTC+00:00)

SJ 16-02 - Pass Details

Date: 26 November 2020
Orbit: 606 x 616 km, 75.0° (Epoch: 27 January)

Event Time Altitude Azimuth Distance (km) Brightness Sun altitude
Rises 05:32:15 0° 218° (SW) 2,866 4.6 -14.1°
Reaches altitude 10° 05:34:36 10° 226° (SW) 1,968 3.6 -13.7°
Maximum altitude 05:38:42 38° 296° (WNW) 943 1.8 -13.0°
Drops below altitude 10° 05:42:51 10° 5° (N) 1,986 3.8 -12.3°
Sets 05:45:15 0° 13° (NNE) 2,896 4.8 -11.9°
